Regional Weather Roundup
Issued by NWS Sioux Falls, SD

Home | Current Version | Previous Version | Graphics & Text | Print | Product List | Glossary On
Versions: 1 2 3 4 5 6 7 8 9 10 11 12 13 14 15 16 17 18 19 20 21 22 23 24 25 26 27 28 29 30 31 32 33 34 35 36 37 38 39 40 41 42 43 44 45 46 47 48 49 50
000
ASUS43 KFSD 221802
RWRFSD

WEATHER ROUNDUP FOR SE SOUTH DAKOTA/SW MINNESOTA/NW IOWA
NATIONAL WEATHER SERVICE SIOUX FALLS SD
1200 PM CST SAT NOV 22 2014

NOTE: "FAIR" INDICATES FEW OR NO CLOUDS BELOW 12,000 FEET WITH NO
SIGNIFICANT WEATHER AND OR OBSTRUCTIONS TO VISIBILITY.


SDZ038>040-050-052>070-221900-
SOUTHEAST SOUTH DAKOTA

CITY           SKY/WX    TMP DP  RH WIND       PRES   REMARKS
CHAMBERLAIN    CLOUDY    43  29  57 S8        29.52F
6HR MIN TEMP:  15; 6HR MAX TEMP:  43;

HURON          MOSUNNY   37  30  75 SE12      29.54F
6HR MIN TEMP:  21; 6HR MAX TEMP:  37;

MADISON        FAIR      32  32 100 S13       29.61F WCI  22
MITCHELL       MOSUNNY   41  33  73 S12       29.58F
6HR MIN TEMP:  22; 6HR MAX TEMP:  41;

SIOUX FALLS    PTSUNNY   38  34  85 S14       29.65F
6HR MIN TEMP:  27; 6HR MAX TEMP:  38;

WINNER         FAIR      51  28  41 SW22G28   29.51F
YANKTON        SUNNY     46  34  61 SE12      29.65F
$$

MNZ071-072-080-081-089-090-097-098-221900-
SOUTHWEST MINNESOTA

CITY           SKY/WX    TMP DP  RH WIND       PRES   REMARKS
FAIRMONT       CLOUDY    36  32  87 SW12      29.72F
JACKSON        FOG       36  34  93 SW14G21   29.70F VSB 1
LUVERNE        CLOUDY    36  34  93 S12       29.67F FOG
MARSHALL       SUNNY     37  30  75 S15       29.64F
6HR MIN TEMP:  30; 6HR MAX TEMP:  37;

MONTEVIDEO     SUNNY     39  32  75 S10       29.64F
PIPESTONE      SNOW      34  34 100 S13       29.64F VSB<1/4 WCI  25
REDWOOD FALLS  CLOUDY    35  33  92 S12       29.67F FOG     WCI  27
TRACY          CLOUDY    36  35  93 S16       29.64F FOG
WINDOM         FOG       36  36 100 SW14      29.68F VSB 3/4
WORTHINGTON    CLOUDY    34  32  93 SW14      29.68F VSB 1/4 WCI  24
$$

IAZ001>003-012>014-020>022-031-032-NEZ013-014-SDZ071-221900-
NORTHWEST IOWA

CITY           SKY/WX    TMP DP  RH WIND       PRES   REMARKS
CHEROKEE       CLOUDY    38  38 100 S9        29.73F FOG
DENISON        CLOUDY    39  39 100 SW16G28   29.76F FOG
ESTHERVILLE    FOG       34  34 100 SW15      29.71F VSB 1   WCI  24
SIOUX CITY     CLOUDY    41  36  82 S14       29.75F
6HR MIN TEMP:  38; 6HR MAX TEMP:  41;

SPENCER        CLOUDY    36  35  96 SW13      29.72F FOG
6HR MIN TEMP:  35; 6HR MAX TEMP:  36;

$$

ABBREVIATIONS USED IN REMARKS
   TC - TEMPERATURE IN CELSIUS
  WCI - WIND CHILL INDEX
   HX - HEAT INDEX
  VSB - VISIBILITY



USA.gov is the U.S. government's official web portal to all federal, state and local government web resources and services.